GFSFLT1_sfc_30mbdewp_015.txt.gz
Dewpoint
45 48 50 52 53 55 58 59 63 65 66 66 69 70 69 69 69 69 68 68 67 68 69 70 71 71 70 70 66 65 64 62 61
44 46 48 50 52 53 56 58 61 65 65 65 68 70 70 70 70 69 69 68 68 68 70 70 70 71 70 69 67 64 63 62 62
43 46 46 49 50 52 54 57 59 63 65 65 65 68 69 69 70 70 69 69 68 68 69 70 70 71 70 69 66 65 63 62 62
44 46 46 46 49 51 53 56 58 62 65 65 65 66 68 68 69 70 69 69 69 69 69 69 70 70 70 68 66 65 64 63 62
41 44 46 45 46 49 52 55 57 62 64 66 65 67 68 68 68 69 70 69 69 70 70 69 69 69 69 68 67 65 64 63 63
34 41 45 46 45 46 52 55 57 61 64 65 66 67 68 69 69 69 70 70 70 70 70 69 69 69 69 68 67 65 64 63 63
35 43 46 46 46 46 52 56 58 61 64 65 66 67 68 69 69 70 69 69 70 70 70 69 68 69 69 69 68 67 65 65 63
31 41 44 45 46 48 52 55 58 62 63 66 66 67 68 69 70 70 71 70 69 69 70 70 69 68 68 69 69 68 66 65 64
22 37 40 42 44 46 50 54 58 60 64 65 67 67 68 69 70 71 71 71 71 70 70 70 69 68 68 68 69 68 67 67 66
21 21 27 37 43 45 50 55 58 60 63 65 68 68 69 69 70 71 71 72 71 71 70 71 69 68 68 68 68 67 66 66 66
19 26 32 40 45 46 51 55 58 59 63 65 67 68 69 70 70 70 71 72 72 72 71 71 70 69 68 68 68 66 66 66 66
24 25 29 39 48 49 52 56 58 60 62 64 67 68 68 70 71 71 71 72 72 72 72 71 71 70 69 69 69 66 65 65 65
31 30 34 39 48 52 52 55 58 60 61 64 67 68 68 70 71 71 71 72 72 72 72 72 71 71 70 70 69 66 65 66 66
53 46 47 46 38 52 54 56 58 60 61 62 64 67 69 69 71 71 71 72 72 73 73 72 72 72 71 70 69 63 63 64 66
63 63 64 67 67 65 62 52 57 59 61 62 63 64 66 68 69 71 71 72 72 73 72 72 71 71 68 68 65 64 62 63 63
59 59 57 57 57 58 60 69 65 58 58 60 62 63 64 66 69 71 71 72 72 72 72 71 70 68 66 65 66 65 61 59 59
56 56 55 53 52 51 51 56 62 64 67 63 60 62 63 65 68 70 71 72 72 72 71 70 68 67 66 64 64 64 60 58 59
55 55 54 53 51 50 49 54 57 58 56 61 62 61 63 66 68 70 71 66 70 71 69 69 67 66 66 64 64 63 60 59 58
58 57 58 56 56 55 54 58 63 63 61 56 64 67 69 70 70 63 61 61 59 56 62 66 66 65 66 65 64 61 59 58 58
60 60 60 61 62 61 60 62 61 60 61 60 60 66 70 67 63 63 64 66 64 61 58 58 55 62 64 63 62 60 58 57 56

GFSFLT1_sfc_30mbdewp_021.txt.gz
Dewpoint
52 56 58 59 60 62 64 64 65 65 66 68 69 70 70 71 71 70 69 69 67 67 67 68 70 72 72 72 72 71 70 69 68
46 51 55 57 59 61 63 64 65 65 66 68 69 69 70 70 71 70 69 69 70 68 70 68 70 71 72 72 72 71 70 68 68
39 43 49 54 57 59 61 62 64 65 66 67 68 69 69 70 70 70 70 70 70 69 69 70 69 70 71 72 72 72 71 69 68
36 40 44 48 54 58 60 61 62 64 65 67 68 69 69 69 70 70 70 70 70 70 70 71 70 71 71 71 71 71 71 70 68
37 43 46 47 49 53 56 59 60 62 64 65 67 68 69 69 70 70 70 70 70 71 71 71 72 71 71 71 71 71 71 70 68
35 41 47 49 48 50 54 56 59 60 62 63 65 67 68 69 70 70 70 70 70 71 71 71 70 71 71 71 71 71 71 70 69
33 37 43 49 50 52 53 55 57 59 61 62 64 65 67 68 69 70 70 71 71 71 71 71 71 72 71 71 71 71 70 70 70
31 33 36 42 46 53 56 56 58 59 60 62 63 66 66 68 69 70 70 71 71 71 71 71 71 71 71 71 70 70 70 70 70
26 32 31 36 44 51 54 56 58 59 60 61 64 66 66 67 69 70 70 71 71 71 71 71 71 71 71 71 70 69 69 70 70
29 29 30 32 39 47 54 55 58 59 61 62 64 65 66 67 68 69 70 71 71 71 71 71 71 71 71 71 71 68 68 68 69
29 30 31 35 35 43 54 54 54 58 60 63 65 66 67 68 68 69 70 70 70 71 71 71 71 71 71 71 71 68 67 67 69
31 31 34 37 36 38 51 54 57 60 61 64 65 66 67 68 69 69 70 70 70 70 71 71 71 71 71 71 71 68 66 66 68
29 31 33 37 40 46 51 53 54 59 60 63 65 66 67 68 69 69 69 70 71 71 71 71 70 71 71 71 71 68 66 66 68
55 55 44 42 50 55 58 59 56 59 60 63 64 65 67 69 70 70 70 71 72 71 71 71 71 71 71 71 71 71 65 64 69
63 63 60 58 61 63 64 62 62 62 63 64 66 67 68 70 70 70 70 71 72 72 71 71 71 71 71 71 71 69 64 63 67
61 60 61 65 64 63 64 65 65 65 67 66 66 67 68 70 71 71 71 72 72 71 72 70 70 70 69 69 70 71 64 62 64
56 55 54 54 56 58 60 62 63 64 64 69 68 67 68 70 70 71 72 71 71 71 71 71 70 70 70 70 70 68 62 62 63
57 57 57 58 60 61 61 62 62 62 62 62 61 65 68 67 68 69 70 71 71 71 71 71 70 70 71 70 67 64 63 63 63
60 61 63 63 64 64 63 61 61 62 64 63 62 61 60 61 63 65 67 69 72 66 64 69 69 70 71 69 65 61 61 61 60
60 61 61 61 62 63 64 64 65 66 66 65 64 63 63 63 67 65 64 68 70 68 65 61 67 68 66 62 58 60 60 60 60

GFSFLT1_sfc_30mbdewp_024.txt.gz
Dewpoint
43 51 54 54 57 59 60 60 63 64 67 70 70 70 72 73 73 70 69 70 67 67 65 65 66 69 71 71 71 72 72 71 70
33 48 52 54 55 58 60 62 64 66 67 70 70 69 72 73 73 72 68 70 71 68 69 66 67 69 71 71 71 71 72 71 70
31 41 50 52 55 56 59 61 63 65 67 69 70 70 71 71 71 73 72 72 71 70 69 70 67 70 70 70 71 71 72 70 70
30 37 43 48 51 54 56 59 62 64 66 67 68 69 70 71 70 70 72 71 72 73 71 71 71 71 70 70 70 71 72 71 68
29 32 36 41 44 50 54 57 59 61 64 65 67 68 71 71 71 71 70 72 72 73 72 72 72 71 71 70 70 71 72 71 68
31 35 41 44 43 45 50 54 58 59 61 63 64 67 68 69 70 71 71 72 72 73 73 73 71 72 72 71 70 71 71 72 71
27 34 37 39 42 43 47 52 58 61 59 60 62 63 66 68 70 71 71 72 73 73 73 73 73 73 73 72 71 70 70 71 71
23 28 33 37 44 47 51 52 57 62 61 60 60 64 64 68 70 72 72 72 73 73 73 73 73 73 73 73 71 69 71 71 70
24 24 24 24 31 45 48 52 56 57 61 60 62 64 65 67 70 72 72 73 73 73 73 73 74 73 73 72 70 68 68 71 70
22 26 27 29 31 36 42 44 53 56 59 61 63 65 67 68 70 72 72 73 73 73 73 73 73 73 73 73 73 67 66 68 70
24 24 27 29 29 27 31 41 40 53 58 63 64 67 68 69 70 71 72 73 73 73 73 73 73 73 73 73 73 70 66 67 70
27 30 30 30 30 31 37 39 43 49 57 61 63 67 68 69 70 70 71 72 73 73 73 73 73 73 73 73 73 70 67 66 69
26 28 31 32 32 36 38 44 46 51 56 59 64 66 67 69 70 70 71 72 73 73 73 72 71 72 73 73 73 71 67 67 68
45 43 42 42 41 40 44 50 51 51 56 58 63 65 65 68 70 71 71 72 73 73 72 71 72 72 73 73 73 73 66 66 70
51 48 49 54 47 48 55 59 59 57 61 61 64 65 65 68 70 70 69 72 73 72 72 72 72 72 72 72 73 71 66 64 67
54 55 57 58 54 60 63 64 63 63 64 64 65 66 67 68 69 70 70 72 72 71 72 70 70 69 70 69 70 72 69 64 65
59 58 59 60 61 62 64 67 68 69 68 68 68 68 69 69 70 70 70 70 70 70 69 70 69 68 69 69 69 69 70 65 63
58 58 59 61 61 62 63 63 63 63 64 65 68 68 68 69 69 70 70 71 68 68 69 68 69 69 68 69 68 70 71 67 64
62 63 64 64 65 64 62 63 64 66 66 66 64 61 59 59 60 61 65 66 68 67 67 67 66 66 69 69 70 68 67 64 64
62 63 63 63 64 64 65 65 64 65 66 65 65 63 64 62 64 62 61 62 63 63 67 69 68 67 66 66 68 63 62 61 61

GFSFLT1_sfc_30mbdewp_030.txt.gz
Dewpoint
38 43 49 54 58 58 59 59 62 65 71 72 73 72 73 71 74 70 68 71 66 67 67 67 72 72 73 73 74 73 74 74 73
34 39 43 52 56 59 59 59 62 65 69 72 73 72 73 73 72 73 69 69 71 69 68 67 70 73 72 73 73 74 73 72 74
32 37 42 50 55 58 59 59 61 64 68 71 73 73 73 73 72 73 72 69 71 69 70 69 71 73 73 73 73 74 74 73 73
31 38 43 48 54 58 60 59 60 63 65 70 72 73 73 73 74 73 72 72 71 73 71 73 70 74 74 74 73 74 74 73 72
31 34 44 46 51 56 59 59 60 62 64 67 71 73 73 73 73 74 73 71 72 73 74 72 74 73 73 73 73 73 73 73 71
33 36 39 45 51 53 57 59 60 61 63 65 69 72 73 73 73 73 73 74 72 73 73 74 72 74 73 73 73 73 74 74 73
32 38 37 46 48 53 55 58 61 61 62 64 65 70 72 72 73 73 73 73 74 72 74 73 74 73 74 74 74 74 73 73 73
34 37 41 45 47 53 55 57 61 62 62 63 64 66 70 71 72 73 73 73 73 74 73 73 74 73 74 74 74 74 73 73 73
31 34 37 39 41 43 47 58 61 62 62 63 64 65 66 69 71 72 74 73 74 74 74 74 74 74 74 74 74 73 72 73 73
28 29 29 31 37 40 44 49 61 63 63 64 65 66 67 68 70 71 73 74 74 74 74 74 74 74 74 74 74 72 71 71 72
28 28 30 33 30 34 37 41 47 56 63 65 65 67 67 70 71 71 72 73 74 74 74 75 74 75 75 75 74 73 70 70 71
30 32 35 35 33 34 39 42 46 53 55 65 66 66 68 68 72 71 72 73 74 74 75 75 75 75 75 75 75 73 71 68 70
53 53 54 54 52 51 43 47 41 46 56 61 65 66 67 69 69 71 72 73 74 75 75 75 75 75 75 75 75 75 71 69 72
55 55 54 54 54 53 55 57 53 55 52 54 64 66 67 70 72 71 72 73 75 75 75 75 75 75 75 75 75 75 72 69 73
56 57 56 53 52 51 54 55 55 54 57 61 62 65 68 71 72 72 72 73 75 75 75 75 74 75 75 75 75 74 74 70 70
59 58 57 59 59 59 61 61 66 65 67 67 66 69 70 70 73 73 72 74 74 74 75 74 74 74 73 74 74 74 73 71 69
60 62 60 59 60 61 68 71 71 70 71 68 68 70 72 72 73 74 74 73 74 74 73 73 73 72 72 72 72 72 73 72 68
58 62 66 67 66 65 67 68 68 68 69 71 70 69 71 72 72 73 73 73 71 73 73 71 71 72 71 70 70 66 63 66 70
60 61 63 66 67 65 67 68 68 68 69 69 70 71 71 70 69 71 71 72 72 71 70 66 63 62 65 66 58 54 55 59 64
60 62 63 63 66 66 66 66 65 66 67 68 68 67 66 63 62 64 71 70 71 71 65 61 59 58 56 54 53 53 53 53 56

GFSFLT1_sfc_30mbdewp_036.txt.gz
Dewpoint
54 55 55 55 56 57 57 63 64 64 66 67 69 69 69 69 69 68 67 67 66 66 69 69 69 72 72 72 72 71 70 70 70
54 55 55 54 56 57 58 62 64 65 65 66 69 69 69 70 70 69 69 68 68 67 69 70 70 71 72 72 72 71 71 70 70
54 56 54 53 56 57 57 61 64 66 66 66 69 69 69 69 70 72 70 68 68 70 68 69 71 71 72 72 72 72 72 72 71
52 54 53 52 55 57 57 59 63 67 68 67 69 70 70 69 68 69 72 69 67 67 70 69 69 71 71 72 72 72 71 72 72
51 52 53 53 55 56 57 58 62 66 69 68 69 70 71 70 70 69 69 72 70 68 68 70 69 71 71 72 72 72 71 71 71
47 50 52 54 55 56 57 57 60 64 68 69 69 70 70 70 71 70 69 69 72 70 68 69 71 72 71 71 72 72 73 72 71
36 47 53 54 55 56 57 57 59 63 65 69 70 70 70 70 70 71 71 70 69 72 71 67 69 72 73 72 72 72 72 72 72
41 50 53 53 55 56 58 58 58 62 64 67 70 70 70 70 70 71 72 72 70 70 70 72 68 69 71 73 73 73 72 72 72
43 50 53 55 56 57 58 58 58 61 62 65 69 70 70 71 71 71 71 72 72 71 70 69 71 71 72 71 72 72 72 72 72
45 50 54 56 57 57 58 59 59 60 61 63 67 69 70 71 71 72 72 72 72 72 72 71 69 69 71 71 72 71 71 71 72
48 49 49 50 55 57 59 59 59 60 61 62 63 66 69 70 71 71 72 72 72 72 72 73 72 71 70 72 71 71 70 70 72
56 54 54 54 53 53 57 60 61 60 61 62 63 64 65 69 70 72 72 72 72 72 72 72 72 73 72 71 71 71 70 69 71
63 59 56 53 52 56 54 54 62 62 62 62 62 63 64 66 69 70 71 72 72 72 72 72 72 72 73 73 73 71 70 70 71
64 65 64 63 65 62 55 55 58 62 63 63 64 65 64 67 67 69 71 71 72 72 72 72 72 72 73 73 73 73 71 69 72
60 62 65 68 69 69 70 66 63 66 66 67 65 67 68 69 69 68 69 70 71 72 72 72 72 72 73 74 74 74 72 70 70
56 59 61 64 67 68 69 69 69 68 69 70 69 68 67 68 70 72 72 72 71 71 72 72 72 73 73 74 75 75 73 71 70
56 58 60 62 64 67 67 68 68 68 68 69 69 69 69 69 69 71 71 73 73 73 73 73 73 74 74 74 75 75 73 71 69
57 59 61 62 63 65 66 66 65 66 67 68 68 69 72 72 72 71 72 69 68 74 74 74 74 74 74 74 73 68 64 65 67
58 59 61 61 63 65 66 66 65 65 67 68 67 68 70 72 73 73 73 68 62 54 57 64 69 70 67 57 58 55 54 54 55
56 58 57 59 61 64 65 64 65 66 67 67 66 66 63 69 71 73 73 66 61 58 57 55 54 56 57 57 57 55 54 58 58